FIN4XD ESSA-EFHK

Flight info

Callsign FIN4XD
Flight time N/A
Altitude 27000
Route TOVRI N851 RIKUM DCT RIRIP Y364 LAKUT
Aircraft A20N/M-SDE2E3FGHIRWXY/LB1

Departure

Time 2026-05-05 02:09
Airport Stockholm-Arlanda Airport (ESSA)

Arrival

Time N/A
Airport Helsinki Vantaa Airport (EFHK)
Time Latitude Longitude Altitude Speed Heading
2026-05-05 01:45 59.65437 17.93518 119 ft 0 kts 75°
2026-05-05 01:59 59.65435 17.93500 119 ft 2 kts 75°
2026-05-05 01:59 59.65431 17.93472 119 ft 2 kts 75°
2026-05-05 02:00 59.65427 17.93444 118 ft 1 kts 75°
2026-05-05 02:00 59.65424 17.93424 118 ft 2 kts 63°
2026-05-05 02:00 59.65416 17.93401 118 ft 2 kts 42°
2026-05-05 02:00 59.65404 17.93385 118 ft 2 kts 22°
2026-05-05 02:01 59.65389 17.93377 118 ft 2 kts
2026-05-05 02:01 59.65379 17.93378 118 ft 0 kts 348°
2026-05-05 02:01 59.65372 17.93382 118 ft 0 kts 345°
2026-05-05 02:03 59.65385 17.93375 118 ft 4 kts 345°
2026-05-05 02:04 59.65433 17.93351 116 ft 8 kts 346°
2026-05-05 02:04 59.65505 17.93340 115 ft 11 kts 354°
2026-05-05 02:04 59.65583 17.93308 116 ft 11 kts 357°
2026-05-05 02:04 59.65631 17.93406 118 ft 10 kts 75°
2026-05-05 02:05 59.65649 17.93557 119 ft 11 kts 76°
2026-05-05 02:05 59.65668 17.93700 121 ft 11 kts 76°
2026-05-05 02:05 59.65695 17.93909 123 ft 17 kts 76°
2026-05-05 02:05 59.65723 17.94134 127 ft 16 kts 76°
2026-05-05 02:06 59.65755 17.94381 131 ft 19 kts 76°
2026-05-05 02:06 59.65787 17.94637 135 ft 19 kts 75°
2026-05-05 02:06 59.65821 17.94898 136 ft 16 kts 76°
2026-05-05 02:06 59.65815 17.95072 139 ft 12 kts 128°
2026-05-05 02:07 59.65731 17.95147 140 ft 15 kts 165°
2026-05-05 02:07 59.65614 17.95208 143 ft 19 kts 165°
2026-05-05 02:07 59.65476 17.95282 144 ft 20 kts 165°
2026-05-05 02:07 59.65335 17.95356 141 ft 21 kts 165°
2026-05-05 02:08 59.65200 17.95427 131 ft 20 kts 166°
2026-05-05 02:08 59.65071 17.95494 124 ft 19 kts 168°
2026-05-05 02:08 59.64955 17.95632 119 ft 21 kts 110°
2026-05-05 02:08 59.64892 17.95854 119 ft 18 kts 156°
2026-05-05 02:09 59.64759 17.95844 120 ft 30 kts 192°
2026-05-05 02:09 59.64281 17.95668 122 ft 107 kts 191°
2026-05-05 02:09 59.63353 17.95362 254 ft 154 kts 192°
2026-05-05 02:09 59.62288 17.95029 945 ft 156 kts 195°
2026-05-05 02:10 59.61235 17.94706 1678 ft 158 kts 189°
2026-05-05 02:10 59.60151 17.95456 2186 ft 186 kts 141°
2026-05-05 02:10 59.59619 17.97874 2609 ft 208 kts 90°
2026-05-05 02:10 59.59902 18.00696 3031 ft 221 kts 67°
2026-05-05 02:11 59.60477 18.03620 3388 ft 241 kts 64°
2026-05-05 02:11 59.61105 18.06795 3980 ft 250 kts 66°
2026-05-05 02:11 59.61670 18.09978 4738 ft 252 kts 69°
2026-05-05 02:11 59.62211 18.13301 5481 ft 255 kts 71°
2026-05-05 02:12 59.62777 18.16587 6176 ft 259 kts 67°
2026-05-05 02:12 59.64201 18.23573 7039 ft 292 kts 66°
2026-05-05 02:12 59.64981 18.27350 7427 ft 306 kts 66°
2026-05-05 02:13 59.65791 18.31280 8033 ft 312 kts 66°
2026-05-05 02:13 59.66604 18.35253 8700 ft 315 kts 66°
2026-05-05 02:13 59.67425 18.39277 9327 ft 319 kts 66°
2026-05-05 02:13 59.68252 18.43343 9911 ft 323 kts 66°
2026-05-05 02:14 59.69105 18.47543 10259 ft 337 kts 66°